sat.trackr.live / text

‹ back to catalog

STARLINK-31128

NORAD 58669 · 2023-211C

PAYLOAD ACTIVE UNKNOWN

§ Identity

Operator
Country
US
Launch date
2023-12-29
Launch site
AFETR
Launch vehicle
Mass (kg)
RCS (m²)

Purposes: comms

External: N2YO · Heavens-Above · Gunter

§ Orbital elements

Epoch: 2026-09-19T19:25:40.929600Z

Period
94.27 min
Inclination
43.0026°
Eccentricity
0.0001420
Mean motion
15.27579719 rev/d
Perigee alt
482.1 km
Apogee alt
484.0 km
Semi-major
6,861.2 km
B*
2.2312e-5
RAAN
68.9087°
Arg perigee
269.1777°
Mean anomaly
90.8912°
Rev number
15,215

§ Raw data

STARLINK-311281 58669U 23211C   26262.80950150  .00000352  00000+0  22312-4 0  99922 58669  43.0026  68.9087 0001420 269.1777  90.8912 15.27579719152151

JSON: /api/v1/satellites/58669 · /tle

For live sub-satellite position, see the globe view (requires WebGL).

§ Visibility from observer

Set your observer location to see the next 7 days of passes ≥ 10°. The values pass through the URL so the page stays shareable.

No JS? Fill the form by hand. The geolocation button needs JavaScript.